Terug naar catalogus

NIMBUS 2 DEB

ActiefLEO
NORAD 32475·DEBRIS·🇺🇸 United States

Gelanceerd May 15, 1966 vanaf Vandenberg Space Force Base

Loading…

Volgende Passages (komende 24 uur)

TLE

VerouderdSource: Space-Track

Epoch: Aug 22, 2026, 13:52 UTC

1 32475U 66040AS  26234.57801260  .00002173  00000-0  29769-2 0  9991
2 32475 100.5366 268.5687 0054562 292.8994 222.0406 13.59467141937445

Volg NIMBUS 2 DEB in realtime met AllMySat

Download on the App Store